Location: Alvis C Story Elementary School
(33.0968°N, 96.6364°W)
Time: 14:43:40
(UTC+00:00)

Meteor 1-27 Rocket - Pass Details

Date: 08 December 2021
Orbit: 831 x 909 km, 81.3° (Epoch: 26 January)

Event Time Altitude Azimuth Distance (km) Brightness Sun altitude
Rises 12:14:28 0° 349° (N) 3,440 6.6 -13.0°
Reaches altitude 10° 12:16:53 10° 348° (NNW) 2,512 5.9 -12.5°
Maximum altitude 12:22:34 73° 264° (W) 920 3.7 -11.4°
Drops below altitude 10° 12:28:21 10° 181° (S) 2,549 6.5 -10.3°
Sets 12:30:49 0° 179° (S) 3,495 7.2 -9.8°
